Temperature
24 24 23 24 25 26 29 31 32 32 32 32 31 31 30 29 28 26 25 24 22 22 22 21 21 20 20 19 19 19 19 19 19 19 19 18 18 18 18 18 18 18 18 18 18 18 18 18 18
24 24 25 26 25 27 30 32 32 32 32 31 31 31 30 29 28 26 25 23 22 22 22 21 21 20 20 19 19 19 19 19 19 19 18 18 18 18 18 18 18 18 18 18 18 18 18 18 18
25 25 27 27 27 29 31 32 32 33 32 31 31 30 29 28 27 26 24 23 22 21 21 22 21 20 20 19 19 19 19 19 19 18 18 18 18 18 18 18 18 18 18 18 18 18 18 18 18
24 27 28 28 30 32 32 33 33 32 32 31 31 30 28 27 27 25 24 23 22 21 21 21 21 20 20 19 19 19 19 19 19 18 18 18 18 18 18 18 18 18 18 18 18 18 18 18 18
27 29 27 28 31 33 34 34 33 32 32 31 30 29 27 27 26 25 24 24 22 21 21 21 21 20 20 19 19 19 19 19 19 18 18 18 18 18 18 18 18 18 18 18 18 18 18 18 18
29 30 28 29 31 33 34 34 33 32 31 31 30 29 26 26 26 25 25 24 22 21 21 21 21 20 20 19 19 19 19 19 18 18 18 18 18 18 18 18 18 18 18 18 18 18 18 18 18
29 29 29 30 31 33 34 34 33 32 31 31 30 28 26 26 25 25 25 24 22 21 21 21 21 20 20 19 19 19 19 18 18 18 18 18 18 18 18 18 18 18 18 18 18 18 18 18 18
30 30 30 31 32 33 34 34 33 33 32 31 30 28 26 26 25 25 24 24 22 21 21 21 20 20 20 19 19 19 19 18 18 18 18 18 18 18 18 18 18 18 18 18 18 18 18 18 18
30 30 30 31 32 33 34 34 33 32 31 30 30 28 27 26 25 25 24 23 22 21 20 20 20 20 19 19 19 19 18 18 18 18 18 18 18 18 18 18 18 18 18 18 18 18 18 18 18
32 30 31 32 34 34 34 34 33 32 30 29 28 27 26 25 25 24 24 23 22 21 21 20 20 20 19 18 19 19 18 18 18 18 18 18 18 17 18 18 18 18 18 18 18 18 18 18 18
32 32 32 33 34 34 34 34 33 32 30 29 28 27 26 25 25 24 24 23 22 22 21 20 20 20 19 19 19 18 18 18 18 18 18 18 18 18 18 18 18 18 18 18 18 18 17 17 17
33 33 33 33 34 34 34 34 33 33 32 30 29 27 26 25 25 24 24 23 22 22 21 21 20 20 19 19 19 18 18 18 18 18 18 18 18 18 18 18 18 18 18 17 18 17 17 17 17
33 33 33 34 34 34 34 33 33 33 32 31 29 28 26 26 25 24 24 23 22 21 21 20 20 20 19 19 19 19 18 18 18 18 18 18 18 18 18 18 18 18 18 18 18 17 17 17 17
33 34 33 34 34 34 34 34 33 32 32 31 29 28 27 26 25 24 23 23 22 21 21 20 20 20 19 19 19 19 19 19 18 18 18 18 18 18 18 18 18 18 18 18 18 18 17 17 17
33 33 33 34 34 34 34 33 33 32 32 31 30 29 27 26 25 24 23 23 22 21 20 20 20 19 19 19 19 19 19 19 18 18 18 18 18 18 18 18 18 18 18 18 18 17 18 17 17
33 32 32 34 34 34 33 31 32 32 32 31 30 29 27 26 25 24 23 22 22 21 20 20 19 19 19 19 19 19 19 19 18 18 18 18 18 18 18 18 18 18 18 18 18 18 18 18 18
32 31 32 34 35 34 33 32 33 32 32 31 30 29 27 26 25 24 23 22 21 21 20 20 19 19 19 19 19 19 19 19 18 18 18 18 18 18 18 18 18 18 18 18 18 18 18 18 18
31 32 33 33 34 34 33 33 33 33 32 31 30 28 27 26 25 23 22 21 21 20 20 19 19 19 19 19 19 18 18 18 18 18 18 18 18 18 18 17 18 18 18 18 18 18 18 18 18
32 32 32 33 34 33 33 32 33 33 32 32 30 29 27 26 25 23 22 21 20 20 19 19 19 19 18 18 18 18 18 18 18 18 18 18 18 18 18 18 18 18 18 18 18 18 18 18 17
32 31 32 33 34 33 32 32 33 33 32 31 31 29 28 26 24 23 22 21 20 20 19 19 19 19 19 18 18 18 18 18 18 18 18 18 18 18 18 18 18 18 18 17 17 17 17 17 18
31 31 32 32 33 33 32 31 32 32 32 31 31 29 28 26 24 23 21 21 20 19 19 19 19 19 19 18 18 18 18 18 18 18 18 18 18 18 18 18 18 18 17 17 17 17 17 17 18
31 32 32 32 31 31 32 30 31 31 31 31 31 29 28 27 25 23 22 21 20 19 19 19 18 18 18 18 18 18 18 18 18 18 18 17 17 17 17 17 17 17 17 17 17 17 17 17 17
31 33 32 32 31 30 31 31 31 31 30 31 31 30 28 26 25 23 22 21 20 19 19 19 18 18 18 18 18 18 18 18 18 17 17 17 17 17 17 17 17 17 17 17 17 17 17 17 17
32 32 31 31 31 29 30 30 30 31 31 31 30 29 27 26 25 23 22 21 20 20 19 18 18 18 18 18 18 18 18 18 17 17 17 17 17 17 17 17 17 17 17 17 17 17 17 17 17
32 30 29 29 28 29 31 30 30 31 32 31 30 28 27 26 25 23 22 21 20 20 19 19 18 18 18 18 18 18 18 18 17 17 17 17 17 17 17 17 17 17 17 17 17 17 17 17 17
31 30 28 28 29 29 30 29 30 32 31 31 29 28 27 26 25 24 22 21 20 20 19 19 18 18 18 18 18 18 18 17 17 17 17 17 17 17 17 17 17 17 17 17 17 17 17 17 17
31 30 31 30 29 29 29 29 30 31 31 30 29 28 27 26 25 24 23 22 21 20 19 19 18 18 18 18 18 18 17 17 17 17 17 17 17 17 17 17 17 17 17 17 17 17 17 17 17
32 31 31 29 28 28 29 29 29 29 29 29 29 28 27 26 25 24 23 22 21 20 19 18 18 18 18 18 18 18 18 17 17 17 17 17 17 17 17 17 17 17 17 17 17 17 16 16 16
31 30 30 30 30 29 28 27 29 28 29 29 28 28 27 26 24 23 22 21 20 20 19 18 18 18 18 18 17 17 17 17 17 17 17 17 17 17 17 17 17 17 16 17 16 16 16 16 16
32 31 30 29 29 29 29 28 30 29 29 29 28 27 26 25 24 23 22 21 20 20 19 18 18 18 18 17 17 17 17 17 17 17 17 17 17 17 17 17 17 16 16 16 16 16 16 16 16
Wind_Speed
10 12 10 6 4 4 7 13 14 14 15 13 12 14 19 16 11 11 15 23 25 22 21 20 19 18 17 17 17 17 16 15 15 15 14 14 14 14 14 14 15 15 15 16 16 16 16 16 16
10 13 8 3 3 1 9 12 13 13 11 9 12 16 19 17 15 16 18 23 25 22 21 20 20 19 18 17 17 17 16 16 15 14 14 14 13 13 14 14 15 15 16 16 16 16 16 15 15
12 14 6 4 3 3 10 11 10 10 10 9 13 16 15 13 13 15 19 23 23 21 21 21 20 19 18 18 17 17 16 16 15 14 14 13 13 13 14 14 14 15 15 16 16 16 15 14 13
8 7 4 5 4 6 8 8 8 8 9 9 10 10 12 10 11 18 20 23 23 21 22 21 20 19 18 17 17 16 15 15 14 14 13 13 13 13 14 14 14 14 15 15 15 15 14 13 11
10 6 3 6 5 6 8 9 8 8 8 7 11 14 12 11 17 20 19 22 21 22 21 21 20 19 18 17 16 16 15 15 14 13 13 13 13 13 14 14 14 14 15 15 14 14 13 11 9
7 6 5 4 3 4 7 6 7 8 7 6 9 15 11 11 16 17 18 19 21 22 20 20 20 19 18 17 16 16 15 15 14 14 14 13 13 13 14 14 14 14 14 14 14 13 12 10 7
9 8 10 7 2 2 6 6 6 6 5 4 8 12 9 12 15 16 17 17 20 22 20 18 18 17 17 16 16 16 15 15 14 14 14 13 13 13 13 13 13 13 13 13 12 12 11 9 6
10 8 12 6 1 3 6 5 5 5 4 5 7 9 10 14 16 16 16 16 18 20 19 17 17 17 16 15 15 15 15 15 14 14 14 13 13 13 13 13 12 13 12 12 12 11 10 8 5
12 9 9 8 4 4 5 5 4 5 7 7 8 10 16 19 18 17 15 15 16 17 16 16 16 15 15 15 16 15 15 14 15 13 14 14 12 13 12 13 12 12 12 11 11 10 10 8 5
9 9 9 7 7 6 5 4 3 2 7 5 5 12 18 18 18 18 17 17 17 17 15 13 16 14 15 14 15 14 13 14 13 13 13 11 10 11 12 15 12 11 11 11 10 10 10 8 6
11 12 10 9 7 7 7 5 3 1 2 6 9 13 16 17 17 17 17 17 17 16 14 13 14 12 12 10 12 10 10 12 11 13 11 9 9 11 13 11 10 10 11 10 10 9 9 8 7
13 13 11 10 8 8 8 7 6 3 1 5 11 16 16 16 16 16 16 16 16 14 13 12 12 9 8 10 8 8 7 8 8 11 11 9 5 6 8 7 10 10 9 8 10 8 6 7 6
13 13 14 12 10 10 9 8 7 3 1 5 10 14 15 15 14 15 14 13 14 14 13 12 11 9 8 7 6 7 6 8 9 11 10 9 5 4 6 5 7 8 9 7 6 5 5 4 3
14 14 14 15 13 12 11 9 8 3 2 5 8 11 13 13 13 15 14 14 13 13 11 11 11 10 9 7 4 5 6 6 9 10 10 9 7 5 4 4 3 4 7 6 5 5 4 2 2
13 15 16 16 13 11 10 9 5 4 4 5 8 10 12 13 13 14 14 13 14 13 12 11 11 10 9 8 6 6 6 7 6 8 10 8 7 8 5 4 3 4 7 6 4 5 5 4 4
14 14 17 15 11 9 9 8 5 4 6 6 7 9 11 11 13 13 14 12 13 13 12 12 13 12 10 8 6 4 5 6 5 8 9 8 6 9 5 4 4 6 7 5 3 3 4 3 3
16 15 16 11 7 7 8 7 5 5 6 6 6 7 10 11 12 13 14 13 12 13 12 11 10 12 11 9 6 4 4 4 5 8 8 8 8 8 5 3 4 6 4 4 5 4 3 3 3
14 12 11 7 4 5 8 8 6 5 5 5 7 9 10 11 12 13 13 13 12 12 12 11 10 11 11 8 6 4 4 4 4 6 8 9 8 8 6 4 5 5 3 3 2 4 3 2 3
17 16 15 10 5 5 9 10 7 5 6 6 7 9 11 11 12 13 13 13 13 13 13 12 11 11 9 8 8 7 6 5 4 4 9 10 8 9 6 3 5 3 3 4 5 4 4 2 3
14 15 15 12 8 6 10 12 10 7 6 4 5 9 11 11 13 13 13 13 14 13 13 13 12 12 10 8 7 6 6 5 5 4 6 10 9 9 7 4 5 4 3 4 4 3 2 3 3
14 14 14 14 12 10 12 13 11 8 6 6 7 8 11 13 15 15 14 13 14 14 14 12 11 11 11 10 7 6 5 4 4 5 6 7 9 9 6 6 4 4 5 5 5 5 4 3 2
15 14 14 14 13 12 12 11 7 5 7 7 8 9 10 12 14 14 14 14 13 13 13 11 11 11 10 10 10 10 8 7 7 6 6 6 7 8 7 6 5 4 3 5 6 6 4 3 3
15 14 12 12 12 14 15 12 5 5 6 7 7 8 10 12 13 14 14 14 13 13 12 11 11 11 10 10 10 10 8 7 6 7 8 7 6 7 7 6 5 5 4 5 5 5 4 3 3
13 13 12 12 12 15 14 13 7 4 6 6 8 8 9 11 12 12 12 12 11 12 11 11 11 10 11 11 10 10 9 8 8 8 8 7 6 6 7 7 6 5 5 5 4 4 5 3 2
14 11 9 10 11 12 12 11 4 6 6 6 9 9 9 10 11 12 12 12 12 11 11 11 11 10 10 11 10 10 9 9 9 9 8 7 6 6 7 8 6 5 5 5 5 5 4 5 4
15 16 12 10 9 6 6 6 3 7 9 8 9 10 9 11 11 11 12 12 11 11 11 11 11 10 10 10 9 8 8 7 6 8 7 7 6 7 8 7 7 6 6 7 5 5 5 5 4
17 16 18 17 17 11 5 3 5 7 8 10 10 10 8 9 11 11 11 10 10 10 10 10 9 9 9 9 9 8 8 7 6 7 7 6 5 6 8 8 8 7 6 6 6 5 5 5 5
19 15 11 13 12 12 9 7 4 9 8 10 11 10 9 9 9 10 10 10 9 9 8 8 8 8 8 9 8 8 8 8 7 7 7 6 6 5 7 8 8 7 7 6 6 5 5 5 4
16 17 14 10 11 12 8 0 3 5 7 9 10 11 11 9 10 10 9 9 9 9 8 8 8 7 7 7 7 6 7 7 7 7 7 6 5 6 6 7 7 7 7 7 6 6 6 7 5
16 18 16 12 11 11 9 3 6 8 8 9 10 10 10 10 11 11 10 9 9 9 9 8 8 8 7 6 6 6 6 6 6 7 6 6 6 6 6 6 6 7 7 6 7 7 7 7 6
Wind_Direction
241 245 240 262 273 262 69 72 70 67 64 57 52 63 65 57 68 92 119 120 120 125 130 131 129 129 129 130 129 126 124 122 119 116 113 110 107 105 105 103 102 103 103 103 102 102 102 103 104
264 261 248 257 276 51 74 74 71 71 70 68 59 62 72 69 83 107 118 120 123 128 135 132 130 129 129 129 129 128 127 125 123 120 117 114 111 109 108 106 105 106 106 106 105 103 104 106 108
264 266 265 231 242 67 73 76 78 82 78 69 69 61 66 79 94 114 124 128 127 131 129 130 133 131 130 129 130 130 130 128 127 124 121 118 115 112 111 110 109 109 108 107 106 106 106 108 111
266 259 255 271 288 78 83 82 78 79 75 69 81 80 74 72 105 121 133 131 128 128 128 134 134 133 132 131 132 132 132 131 130 127 125 121 119 116 114 113 112 111 109 108 107 107 108 111 115
256 264 276 289 309 77 77 77 81 75 74 74 90 92 87 90 109 127 139 130 132 130 131 136 136 135 135 134 134 135 135 133 132 129 126 123 121 118 117 116 114 113 112 111 110 110 110 112 116
272 274 274 286 340 63 79 76 80 74 76 84 95 101 96 113 121 137 138 134 132 128 131 135 138 138 138 138 139 138 137 135 133 131 129 127 124 122 120 121 119 116 115 114 114 113 113 114 118
267 288 284 277 291 45 71 66 78 88 85 85 100 101 121 136 133 141 132 131 131 130 133 141 143 141 141 142 143 142 140 138 136 133 131 130 128 126 125 124 122 120 118 118 119 118 118 119 123
267 285 294 290 241 62 56 59 78 83 89 80 93 115 144 142 143 138 132 129 127 131 138 146 148 145 149 148 148 145 143 142 139 138 138 138 136 134 133 130 126 125 125 125 125 125 126 127 133
266 272 302 319 331 35 38 30 52 80 71 44 62 107 142 146 148 142 138 135 134 137 143 152 148 152 155 154 151 150 148 148 146 148 151 153 153 147 147 133 133 132 133 133 134 135 137 137 152
252 267 286 303 329 351 2 351 342 64 96 91 70 112 138 150 153 154 153 152 150 148 152 155 150 158 160 155 151 159 160 159 166 157 164 177 161 150 138 137 141 142 143 144 148 151 153 162 169
256 265 278 295 310 322 320 322 333 26 122 161 161 147 148 156 161 164 162 161 158 155 155 156 153 160 159 147 157 166 164 164 174 159 167 170 153 142 134 145 150 154 159 165 157 175 183 183 178
258 274 284 289 302 304 304 308 317 333 91 152 153 150 158 166 171 172 168 165 159 155 153 154 148 158 155 149 156 161 158 163 162 160 172 165 164 147 151 158 166 170 177 170 175 195 180 175 168
263 270 280 286 286 285 287 289 289 287 106 126 136 149 162 170 174 175 165 160 156 156 157 155 150 150 143 138 156 163 161 164 158 160 180 167 160 151 150 155 166 174 165 169 181 169 148 143 146
284 288 283 280 276 274 273 276 275 262 194 153 155 158 164 166 169 164 161 160 156 157 160 155 151 146 142 146 164 151 159 150 151 161 170 173 161 146 146 151 172 166 157 165 161 147 139 159 153
280 284 280 271 262 262 271 274 265 231 198 184 170 164 163 164 168 165 163 162 158 159 162 157 155 152 152 159 172 161 161 155 153 158 158 173 168 150 156 150 181 163 142 138 151 150 151 167 166
274 266 266 260 244 249 256 265 230 208 204 187 174 168 161 160 168 164 164 164 160 159 163 166 169 161 162 168 176 164 164 149 145 150 153 166 160 154 168 163 177 157 150 157 158 174 162 151 141
255 251 258 252 217 244 257 267 227 214 214 185 175 173 161 158 164 162 164 166 162 159 161 166 165 160 167 170 171 168 148 137 147 150 154 168 170 162 184 171 148 166 164 168 186 163 151 150 151
267 277 275 265 215 237 269 272 254 225 242 197 173 168 165 162 165 162 163 165 163 159 160 165 164 162 163 164 163 164 147 152 164 155 156 165 172 167 191 164 157 184 168 159 131 117 117 136 169
279 295 302 301 292 279 278 276 263 228 233 216 178 166 161 161 158 155 162 166 166 160 163 168 170 166 163 170 172 171 170 171 170 167 159 166 174 172 193 168 159 189 167 163 151 138 155 187 167
268 277 282 285 275 276 278 275 266 238 233 222 197 168 164 162 157 157 163 168 168 165 167 170 174 171 172 175 174 173 167 169 175 180 158 170 177 179 185 175 175 175 161 165 153 145 158 200 179
260 264 271 281 288 269 267 265 252 233 214 207 203 181 169 166 162 163 167 170 170 169 173 177 176 174 177 172 170 170 155 163 178 180 169 180 182 186 188 177 190 172 177 167 173 176 189 206 192
257 258 264 273 279 279 277 274 254 208 194 203 194 177 168 162 160 163 168 170 173 172 174 173 174 177 179 174 177 176 177 182 185 182 177 183 190 190 187 180 183 184 186 163 186 187 197 199 208
257 267 269 270 271 273 275 276 254 198 199 188 174 161 152 154 161 164 169 171 171 171 171 173 174 178 180 183 185 187 189 187 181 179 177 183 192 194 188 183 187 186 194 184 196 167 190 201 208
253 260 266 263 263 258 260 265 255 211 179 154 140 131 137 150 156 159 163 162 163 166 170 173 174 181 184 189 191 194 193 186 183 182 178 185 189 197 193 190 190 191 198 185 183 174 192 211 217
232 239 246 242 237 249 249 247 241 129 128 135 137 138 142 145 152 156 159 160 163 168 171 173 175 183 187 191 195 197 196 189 186 183 186 190 192 197 194 194 187 195 194 186 181 181 193 202 206
223 228 237 252 260 264 252 236 154 118 120 127 132 132 141 153 158 159 161 162 165 170 172 173 176 182 187 190 194 193 189 192 192 186 188 199 201 197 182 183 186 198 195 194 178 184 193 193 193
235 227 241 259 277 280 244 216 149 143 138 132 130 136 145 148 151 153 153 155 158 165 168 172 175 179 183 188 189 189 187 191 193 187 193 204 201 197 177 182 186 193 192 193 175 191 190 177 182
238 238 236 248 267 275 265 241 203 154 152 139 142 148 143 146 142 140 144 144 149 154 155 158 168 174 179 184 189 189 185 187 190 190 197 198 199 200 183 186 187 186 185 188 182 192 187 178 185
217 236 243 253 253 262 264 255 107 154 160 154 152 148 148 148 137 137 141 141 142 144 150 156 161 164 171 178 182 179 179 183 185 190 192 188 188 189 188 183 182 186 187 183 180 197 187 182 187
226 225 230 241 254 266 272 207 155 154 160 154 140 134 136 134 133 140 145 147 150 151 154 156 160 164 166 167 168 170 168 173 180 186 188 186 185 187 184 176 182 190 186 181 182 200 192 183 187
Height
1487 1487 1488 1491 1489 1487 1478 1467 1464 1466 1468 1469 1469 1470 1474 1479 1485 1497 1499 1500 1502 1504 1508 1512 1515 1517 1520 1523 1525 1527 1529 1531 1533 1534 1536 1537 1539 1540 1542 1543 1544 1545 1546 1547 1548 1549 1550 1552 1553
1487 1489 1492 1490 1490 1491 1480 1466 1467 1468 1470 1471 1472 1473 1477 1483 1488 1494 1499 1502 1503 1505 1509 1513 1516 1518 1521 1524 1527 1529 1531 1533 1535 1536 1538 1540 1541 1542 1544 1545 1546 1547 1548 1549 1550 1551 1553 1554 1555
1488 1490 1491 1487 1488 1484 1478 1466 1466 1467 1470 1472 1475 1478 1483 1488 1492 1496 1500 1503 1505 1508 1511 1514 1517 1520 1522 1525 1528 1530 1532 1534 1536 1538 1540 1541 1543 1544 1546 1547 1548 1549 1550 1551 1553 1554 1555 1556 1558
1490 1489 1488 1484 1480 1468 1465 1464 1465 1468 1471 1473 1476 1481 1488 1492 1494 1497 1501 1504 1507 1509 1512 1515 1518 1521 1524 1526 1529 1531 1534 1536 1538 1540 1542 1543 1545 1546 1548 1549 1550 1551 1552 1554 1555 1556 1557 1559 1560
1491 1488 1489 1488 1475 1463 1460 1463 1466 1469 1472 1475 1478 1484 1491 1495 1496 1499 1503 1506 1508 1511 1513 1517 1520 1522 1525 1528 1530 1533 1535 1537 1539 1541 1543 1545 1546 1548 1550 1551 1552 1553 1555 1556 1557 1558 1560 1561 1563
1490 1484 1492 1489 1474 1462 1461 1463 1466 1469 1474 1476 1479 1485 1494 1497 1498 1501 1504 1507 1510 1510 1514 1517 1521 1523 1526 1529 1532 1534 1536 1538 1541 1543 1544 1546 1548 1550 1551 1553 1554 1555 1557 1558 1559 1560 1562 1563 1565
1490 1486 1486 1481 1475 1466 1462 1463 1466 1470 1474 1476 1479 1485 1494 1497 1499 1502 1506 1509 1510 1511 1514 1518 1521 1524 1527 1530 1533 1535 1537 1540 1542 1544 1546 1548 1550 1551 1553 1554 1556 1557 1558 1560 1561 1563 1564 1566 1567
1486 1484 1481 1475 1472 1468 1462 1464 1466 1469 1474 1476 1479 1485 1492 1496 1499 1502 1506 1509 1511 1513 1515 1519 1522 1525 1528 1531 1534 1536 1539 1541 1543 1545 1547 1549 1551 1553 1554 1556 1558 1559 1560 1562 1563 1565 1566 1568 1569
1485 1486 1485 1478 1470 1466 1463 1465 1467 1470 1473 1478 1481 1484 1489 1494 1498 1502 1505 1509 1512 1514 1517 1520 1523 1525 1529 1532 1534 1537 1540 1542 1544 1546 1548 1550 1552 1554 1556 1558 1559 1561 1562 1564 1565 1567 1568 1570 1571
1481 1485 1480 1470 1465 1464 1464 1466 1467 1470 1474 1481 1485 1487 1490 1493 1497 1500 1503 1507 1511 1514 1517 1521 1523 1526 1530 1533 1535 1538 1540 1543 1545 1547 1550 1551 1554 1556 1558 1559 1560 1562 1564 1565 1567 1568 1570 1571 1573
1477 1477 1472 1468 1466 1465 1465 1465 1466 1468 1474 1478 1482 1486 1489 1493 1496 1499 1502 1506 1509 1513 1517 1521 1523 1527 1531 1533 1536 1538 1542 1544 1546 1549 1551 1553 1555 1557 1558 1560 1561 1563 1565 1567 1568 1570 1571 1572 1574
1474 1471 1469 1468 1466 1466 1466 1466 1467 1467 1472 1475 1479 1482 1486 1490 1493 1496 1500 1504 1508 1512 1516 1520 1523 1527 1530 1533 1536 1539 1542 1544 1547 1549 1551 1554 1556 1557 1559 1561 1562 1564 1565 1568 1569 1571 1572 1574 1576
1471 1470 1468 1466 1466 1466 1466 1466 1466 1468 1471 1474 1478 1481 1484 1487 1489 1493 1498 1503 1507 1511 1515 1519 1522 1526 1529 1532 1536 1539 1542 1544 1547 1549 1552 1554 1556 1558 1560 1561 1563 1565 1566 1568 1570 1572 1573 1574 1576
1471 1468 1467 1466 1464 1464 1464 1464 1465 1467 1470 1473 1476 1480 1483 1486 1487 1491 1497 1502 1505 1509 1514 1518 1520 1524 1527 1531 1535 1538 1541 1544 1546 1548 1551 1554 1556 1558 1560 1561 1563 1565 1567 1569 1570 1572 1573 1575 1576
1472 1470 1467 1462 1460 1460 1462 1464 1463 1465 1468 1471 1474 1478 1481 1485 1488 1491 1495 1500 1503 1506 1512 1516 1519 1522 1525 1529 1533 1537 1540 1543 1545 1548 1550 1553 1556 1558 1560 1562 1563 1565 1567 1569 1571 1572 1574 1575 1576
1471 1471 1471 1459 1456 1457 1463 1471 1462 1464 1466 1469 1472 1475 1479 1483 1487 1491 1494 1498 1502 1505 1509 1513 1517 1520 1523 1528 1532 1536 1539 1542 1544 1546 1549 1552 1555 1557 1559 1561 1563 1565 1567 1568 1570 1572 1573 1575 1576
1471 1473 1467 1456 1451 1454 1458 1464 1459 1461 1463 1466 1470 1474 1477 1481 1486 1490 1493 1497 1500 1503 1507 1511 1515 1518 1522 1526 1530 1534 1537 1539 1542 1545 1548 1551 1554 1555 1558 1561 1562 1564 1566 1568 1570 1571 1573 1574 1576
1471 1465 1460 1457 1450 1453 1458 1459 1457 1458 1461 1463 1467 1472 1476 1480 1484 1488 1491 1495 1499 1502 1505 1509 1513 1517 1520 1524 1528 1531 1535 1538 1541 1544 1546 1549 1552 1554 1557 1559 1561 1563 1565 1567 1569 1570 1572 1574 1575
1464 1464 1463 1455 1448 1454 1459 1459 1456 1456 1459 1461 1465 1469 1473 1478 1483 1486 1489 1493 1497 1500 1504 1507 1511 1514 1518 1521 1525 1528 1532 1535 1539 1542 1545 1548 1551 1553 1555 1558 1560 1562 1564 1566 1568 1569 1571 1573 1575
1463 1468 1465 1457 1449 1455 1459 1458 1453 1453 1456 1460 1463 1467 1471 1476 1480 1484 1487 1491 1494 1498 1501 1505 1509 1512 1515 1519 1523 1526 1530 1534 1537 1540 1543 1546 1549 1551 1554 1556 1558 1561 1563 1565 1566 1568 1570 1572 1574
1465 1467 1465 1462 1453 1451 1457 1461 1453 1451 1454 1458 1462 1465 1468 1473 1478 1482 1486 1489 1493 1496 1500 1503 1507 1510 1514 1517 1521 1525 1529 1532 1535 1538 1540 1543 1547 1549 1552 1554 1557 1559 1561 1563 1565 1567 1569 1571 1573
1467 1458 1458 1459 1464 1465 1460 1472 1456 1450 1453 1456 1459 1462 1466 1471 1476 1480 1484 1488 1491 1495 1499 1502 1505 1508 1512 1515 1518 1521 1525 1528 1531 1534 1538 1541 1544 1547 1550 1552 1555 1557 1559 1561 1563 1565 1567 1570 1571
1459 1453 1454 1457 1463 1468 1461 1467 1459 1449 1455 1454 1456 1460 1464 1470 1475 1479 1483 1486 1490 1494 1497 1500 1503 1506 1509 1513 1516 1519 1523 1526 1529 1532 1535 1539 1542 1545 1547 1550 1552 1555 1557 1560 1562 1564 1566 1568 1569
1453 1456 1457 1459 1464 1478 1465 1468 1464 1450 1450 1452 1456 1461 1465 1470 1474 1479 1483 1486 1490 1493 1496 1498 1501 1504 1507 1510 1514 1517 1520 1523 1526 1530 1533 1536 1539 1542 1545 1547 1550 1552 1555 1557 1559 1561 1563 1565 1567
1454 1467 1480 1482 1481 1477 1456 1461 1457 1444 1444 1449 1455 1461 1466 1470 1474 1478 1482 1486 1489 1492 1494 1497 1499 1501 1505 1508 1511 1514 1517 1521 1524 1527 1530 1533 1536 1539 1542 1545 1547 1549 1552 1554 1556 1558 1561 1563 1565
1453 1460 1480 1487 1481 1470 1457 1463 1452 1442 1445 1450 1455 1461 1466 1469 1473 1478 1481 1485 1488 1491 1493 1495 1497 1499 1502 1505 1508 1511 1515 1518 1521 1524 1527 1530 1533 1535 1538 1541 1543 1546 1549 1551 1553 1556 1558 1560 1562
1451 1454 1451 1462 1466 1472 1465 1458 1451 1444 1447 1451 1456 1461 1466 1469 1473 1477 1481 1484 1487 1490 1492 1494 1496 1498 1500 1503 1506 1509 1511 1514 1518 1521 1524 1527 1530 1532 1535 1538 1540 1543 1545 1548 1550 1553 1555 1557 1559
1442 1444 1452 1462 1477 1481 1469 1463 1459 1452 1452 1452 1457 1461 1466 1470 1474 1477 1481 1484 1487 1489 1491 1493 1494 1496 1499 1501 1504 1506 1509 1512 1515 1518 1521 1524 1526 1529 1532 1534 1537 1539 1542 1545 1547 1549 1552 1555 1557
1444 1448 1449 1452 1456 1471 1478 1474 1450 1450 1450 1452 1456 1460 1465 1470 1473 1477 1481 1484 1487 1489 1491 1492 1494 1496 1498 1500 1502 1504 1507 1509 1512 1515 1518 1521 1523 1526 1528 1531 1533 1536 1539 1541 1544 1546 1549 1552 1554
1433 1440 1446 1461 1461 1455 1462 1468 1443 1446 1448 1452 1456 1461 1465 1470 1473 1477 1481 1484 1487 1489 1491 1493 1494 1496 1497 1499 1501 1503 1505 1507 1510 1513 1515 1518 1520 1523 1525 1528 1530 1533 1535 1538 1541 1543 1546 1549 1551